BEIJING 3B

导读 | 星芒AI

BEIJING 3B 是中国研制的一型遥感卫星,主要用于高分辨率对地观测,服务于资源调查、环境监测、城市规划等领域。该卫星具备高精度成像能力,能够提供多光谱和全色影像数据,具有较高的空间分辨率和图像质量。作为 BEIJING 系列卫星的重要组成部分,3B 卫星在提升中国自主遥感数据获取能力方面发挥了重要作用,广泛应用于政府管理、科研和商业服务中。

基本信息
目录编号:
53587
目录名称:
BEIJING 3B
国际标识:
2022-103A
轨道中心:
EARTH
卫星名称:
BEIJING 3B
卫星全名:
--
卫星状态:
在轨 (已飞行1162 天)
发射日期:
2022-08-24 UTC
国别 :
中国 (CN)
星等 :
--
轨道信息
数据来源 国际轨道数据
星历时间: 2025-10-28T23:30:00+0800
17小时前
查看轨道信息
半长轴: 6984.202km
偏心率: 0.0028735
轨道倾角: 97.824°
近地点辐角 87.240°
升交点赤经 17.772°
平近点角 273.210°
近地点: 585.997km
远地点: 626.137km
周期: 96.813分钟
每日圈数: 14.873994
详细信息
使用方式:
暂无
2D轨道图
3D轨道图
轨道高度分析图
轨道倾角分析图
轨道综合分析图
查看轨道综合分析图